Hourly Weather Guadix

Today, 25 September, Friday

Time Temperature Precipitation Wind Pressure Humidity
00:00 +21°C° 0 mm 4 mps 683 mmHg 54%
01:00 +20°C° 0 mm 4 mps 683 mmHg 57%
02:00 +20°C° 0 mm 4 mps 682 mmHg 60%
03:00 +19°C° 0 mm 4 mps 682 mmHg 63%
04:00 +19°C° 0 mm 4 mps 682 mmHg 64%
05:00 +19°C° 0 mm 4 mps 682 mmHg 65%
06:00 +18°C° 0 mm 4 mps 682 mmHg 66%
07:00 +20°C° 0 mm 4 mps 683 mmHg 56%
08:00 +21°C° 0 mm 5 mps 683 mmHg 45%
09:00 +22°C° 0 mm 6 mps 684 mmHg 35%
10:00 +23°C° 0 mm 6 mps 684 mmHg 30%
11:00 +24°C° 0 mm 6 mps 684 mmHg 25%
12:00 +26°C° 0 mm 6 mps 684 mmHg 20%
13:00 +26°C° 0 mm 6 mps 684 mmHg 20%
14:00 +26°C° 0 mm 6 mps 684 mmHg 21%
15:00 +26°C° 0 mm 6 mps 684 mmHg 21%
16:00 +23°C° 0 mm 5 mps 683 mmHg 24%
17:00 +22°C° 0 mm 4 mps 683 mmHg 27%
18:00 +21°C° 0 mm 3 mps 683 mmHg 30%
19:00 +20°C° 0 mm 3 mps 683 mmHg 32%
20:00 +19°C° 0 mm 2 mps 684 mmHg 33%
21:00 +18°C° 0 mm 2 mps 684 mmHg 34%
22:00 +17°C° 0 mm 2 mps 684 mmHg 36%
23:00 +16°C° 0 mm 1 mps 684 mmHg 38%

Tomorrow, 26 September, Saturday

Time Temperature Precipitation Wind Pressure Humidity
00:00 +15°C° 0 mm 1 mps 683 mmHg 40%
01:00 +15°C° 0 mm 1 mps 683 mmHg 42%
02:00 +14°C° 0 mm 1 mps 683 mmHg 43%
03:00 +14°C° 0 mm 1 mps 682 mmHg 45%
04:00 +13°C° 0 mm 1 mps 682 mmHg 46%
05:00 +13°C° 0 mm 1 mps 682 mmHg 47%
06:00 +11°C° 0 mm 0 mps 682 mmHg 48%
07:00 +14°C° 0 mm 1 mps 683 mmHg 44%
08:00 +15°C° 0 mm 1 mps 683 mmHg 40%
09:00 +17°C° 0 mm 2 mps 684 mmHg 36%
10:00 +18°C° 0 mm 2 mps 684 mmHg 33%
11:00 +19°C° 0 mm 3 mps 684 mmHg 31%
12:00 +20°C° 0 mm 3 mps 684 mmHg 28%
13:00 +20°C° 0 mm 4 mps 683 mmHg 28%
14:00 +21°C° 0 mm 4 mps 683 mmHg 28%
15:00 +21°C° 0 mm 5 mps 683 mmHg 27%
16:00 +20°C° 0 mm 4 mps 683 mmHg 29%
17:00 +19°C° 0 mm 4 mps 682 mmHg 31%
18:00 +18°C° 0 mm 3 mps 682 mmHg 33%
19:00 +17°C° 0 mm 3 mps 682 mmHg 35%
20:00 +16°C° 0 mm 2 mps 682 mmHg 37%
21:00 +16°C° 0 mm 2 mps 682 mmHg 39%
22:00 +15°C° 0 mm 2 mps 682 mmHg 40%
23:00 +15°C° 0 mm 2 mps 681 mmHg 41%

Day after tomorrow, 27 September, Sunday

Time Temperature Precipitation Wind Pressure Humidity
00:00 +14°C° 0 mm 1 mps 681 mmHg 43%
01:00 +14°C° 0 mm 1 mps 681 mmHg 44%
02:00 +14°C° 0 mm 1 mps 680 mmHg 46%
03:00 +14°C° 0 mm 1 mps 679 mmHg 48%
04:00 +13°C° 0 mm 1 mps 679 mmHg 50%
05:00 +13°C° 0 mm 1 mps 679 mmHg 52%
06:00 +13°C° 0 mm 1 mps 679 mmHg 54%
07:00 +15°C° 0 mm 1 mps 680 mmHg 49%
08:00 +18°C° 0 mm 1 mps 680 mmHg 44%
09:00 +19°C° 0 mm 1 mps 681 mmHg 39%
10:00 +19°C° 0 mm 2 mps 681 mmHg 38%
11:00 +20°C° 0 mm 2 mps 681 mmHg 36%
12:00 +21°C° 0 mm 3 mps 681 mmHg 35%
13:00 +22°C° 0 mm 3 mps 681 mmHg 33%
14:00 +22°C° 0 mm 3 mps 680 mmHg 32%
15:00 +23°C° 0 mm 4 mps 680 mmHg 31%
16:00 +22°C° 0 mm 3 mps 680 mmHg 34%
17:00 +21°C° 0 mm 2 mps 680 mmHg 37%
18:00 +20°C° 0 mm 2 mps 680 mmHg 40%
19:00 +19°C° 0 mm 2 mps 680 mmHg 42%
20:00 +19°C° 0 mm 1 mps 680 mmHg 44%
21:00 +18°C° 0 mm 1 mps 680 mmHg 47%
22:00 +18°C° 0 mm 1 mps 680 mmHg 49%
23:00 +16°C° 0 mm 1 mps 680 mmHg 52%

28 September, Monday

Time Temperature Precipitation Wind Pressure Humidity
00:00 +15°C° 0 mm 0 mps 679 mmHg 55%
01:00 +14°C° 0 mm 0 mps 679 mmHg 56%
02:00 +14°C° 0 mm 0 mps 679 mmHg 57%
03:00 +13°C° 0 mm 0 mps 679 mmHg 58%
04:00 +13°C° 0 mm 0 mps 679 mmHg 59%
05:00 +13°C° 0 mm 0 mps 679 mmHg 59%
06:00 +13°C° 0 mm 0 mps 679 mmHg 60%
07:00 +16°C° 0 mm 1 mps 680 mmHg 54%
08:00 +19°C° 0 mm 1 mps 681 mmHg 47%
09:00 +21°C° 0 mm 1 mps 682 mmHg 41%
10:00 +22°C° 0 mm 1 mps 682 mmHg 38%
11:00 +23°C° 0 mm 1 mps 682 mmHg 35%
12:00 +24°C° 0 mm 1 mps 682 mmHg 31%
13:00 +25°C° 0 mm 2 mps 682 mmHg 31%
14:00 +25°C° 0 mm 2 mps 682 mmHg 30%
15:00 +26°C° 0 mm 2 mps 682 mmHg 30%
16:00 +24°C° 0 mm 2 mps 682 mmHg 35%
17:00 +23°C° 0 mm 1 mps 681 mmHg 41%
18:00 +22°C° 0 mm 1 mps 681 mmHg 47%
19:00 +21°C° 0 mm 1 mps 681 mmHg 50%
20:00 +20°C° 0 mm 1 mps 681 mmHg 54%
21:00 +20°C° 0 mm 1 mps 682 mmHg 58%
22:00 +19°C° 0 mm 1 mps 682 mmHg 60%
23:00 +19°C° 0 mm 1 mps 682 mmHg 62%

29 September, Tuesday

Time Temperature Precipitation Wind Pressure Humidity
00:00 +18°C° 0 mm 1 mps 681 mmHg 64%
01:00 +18°C° 0 mm 1 mps 681 mmHg 64%
02:00 +18°C° 0 mm 1 mps 681 mmHg 64%
03:00 +16°C° 0 mm 1 mps 681 mmHg 63%
04:00 +16°C° 0 mm 1 mps 681 mmHg 63%
05:00 +16°C° 0 mm 1 mps 681 mmHg 62%
06:00 +15°C° 0 mm 1 mps 681 mmHg 61%
07:00 +18°C° 0 mm 1 mps 682 mmHg 54%
08:00 +20°C° 0 mm 1 mps 682 mmHg 47%
09:00 +22°C° 0 mm 1 mps 683 mmHg 40%
10:00 +24°C° 0 mm 1 mps 683 mmHg 37%
11:00 +25°C° 0 mm 1 mps 683 mmHg 34%
12:00 +26°C° 0 mm 2 mps 683 mmHg 31%
13:00 +27°C° 0 mm 2 mps 683 mmHg 30%
14:00 +27°C° 0 mm 2 mps 683 mmHg 29%
15:00 +28°C° 0 mm 2 mps 683 mmHg 28%
16:00 +26°C° 0 mm 2 mps 682 mmHg 32%
17:00 +25°C° 0 mm 1 mps 682 mmHg 35%
18:00 +24°C° 0 mm 1 mps 682 mmHg 39%
19:00 +23°C° 0 mm 1 mps 682 mmHg 41%
20:00 +22°C° 0 mm 1 mps 682 mmHg 43%
21:00 +19°C° 0 mm 0 mps 682 mmHg 46%
22:00 +18°C° 0 mm 0 mps 682 mmHg 47%
23:00 +18°C° 0 mm 0 mps 681 mmHg 48%

30 September, Wednesday

Time Temperature Precipitation Wind Pressure Humidity
00:00 +17°C° 0 mm 0 mps 681 mmHg 49%
01:00 +17°C° 0 mm 0 mps 681 mmHg 49%
02:00 +17°C° 0 mm 0 mps 680 mmHg 49%
03:00 +16°C° 0 mm 0 mps 680 mmHg 49%
04:00 +16°C° 0 mm 0 mps 680 mmHg 50%
05:00 +16°C° 0 mm 0 mps 680 mmHg 50%
06:00 +16°C° 0 mm 0 mps 680 mmHg 50%
07:00 +17°C° 0 mm 0 mps 680 mmHg 45%
08:00 +19°C° 0 mm 0 mps 681 mmHg 41%
09:00 +23°C° 0 mm 1 mps 681 mmHg 36%
10:00 +24°C° 0 mm 1 mps 682 mmHg 34%
11:00 +25°C° 0 mm 1 mps 682 mmHg 32%
12:00 +27°C° 0 mm 2 mps 682 mmHg 30%
13:00 +27°C° 0 mm 2 mps 681 mmHg 28%
14:00 +28°C° 0 mm 3 mps 681 mmHg 27%
15:00 +28°C° 0 mm 3 mps 680 mmHg 26%
16:00 +27°C° 0 mm 3 mps 680 mmHg 29%
17:00 +25°C° 0 mm 3 mps 680 mmHg 32%
18:00 +24°C° 0 mm 2 mps 679 mmHg 36%
19:00 +23°C° 0 mm 2 mps 679 mmHg 38%
20:00 +21°C° 0 mm 2 mps 679 mmHg 40%
21:00 +20°C° 0 mm 2 mps 679 mmHg 43%
22:00 +20°C° 0 mm 2 mps 679 mmHg 45%
23:00 +19°C° 0 mm 2 mps 679 mmHg 46%
Show more